CZ-6A DEB

Satellite information

Favourite Embed

Satellite Type and Status

DEBRISIN ORBIT

Key statistics

Satellite CZ-6A DEB at a glance.

Uptime

1031

Days in orbit

Revolutions

≈ 14.1

Per day

Orbit

SSO

Sun Synchronous Orbit

Inclination

98.8

Latest

Satellite identification and parameters

Extended collection of information and parameters for CZ-6A DEB.

Object identification

Identified? True

Debris? True

Object name: CZ-6A DEB

International designator: 2022-151AEE

Object number (NORAD): 56606

Object ID (CCSDS): 56606

Country: PEOPLES REPUBLIC OF CHINA (PRC)

Current information (Y/N): Y

RCS size: SMALL

Orbital parameters

Period: 102.175 minutes

Inclination: 98.8372 deg

SMA: 7239.729 km

Apoapsis: 895.738 km

Periapsis: 827.451 km

RAAN: 246.9999 deg

Eccentricy: 0.00471613

Argument of periapsis: 67.0117 deg

Mean anomaly: 293.6019 deg

Mean motion: 14.09351417 rev/day

Mean motion (dot): 0.00000351 rev/day2

B* drag term: 0.00022406616 1/REarth

Two-line elements (TLE)

Creation date: Sept. 4, 2025, 10:13 a.m.

Reference frame: TEME

Reference center: EARTH

Epoch: Sept. 4, 2025, 6:38 a.m. UTC

TLE line 0: 0 CZ-6A DEB

TLE line 1: 1 56606U 22151AEE 25247.27704849 .00000351 00000-0 22407-3 0 9992

TLE line 2: 2 56606 98.8372 246.9999 0047161 67.0117 293.6019 14.09351417121549

Live tracking on map

Real-time ground track for satellite CZ-6A DEB.

In-orbit conjunctions

A list of the most updated potential collisions computed for object CZ-6A DEB.

Target Orbit TCA Probability of collision Miss distance Type
CZ-4 DEB SSO 2025-08-11 23:21:24 0.001892658 32.0 (m) DEBRIS
CZ-6A DEB LEO 2024-10-08 06:20:15 0.0003482669 141.0 (m) DEBRIS
FENGYUN 1C DEB SSO 2024-06-09 04:33:12 0.0002315177 36.0 (m) DEBRIS

Associated space launch

Chinese satellite reported for atmospheric/ocean/environmental/spatial parameter research purposes, details TBD.

CZ-6A DEB was lifted into orbit during the mission ‘Long March 6A | Yunhai 3’, on board a Long March 6A space rocket.

The launch took place on Nov. 11, 2022, 10:52 p.m. from Launch Complex 9A.

For more information about the launch, click the button.

Launch to space Long March 6A | Yunhai 3
Long March 6A | Yunhai 3

Agency: N/A

Status: Launch Successful

Launch date: Nov. 11, 2022, 10:52 p.m. UTC

Rocket: Long March 6A

Launch pad: Launch Complex 9A

Location: Taiyuan Satellite Launch Center, People's Republic of China

...

Latest news about this satellite

There are no fresh news available about this satellite. Check back as we update our databases every day.


Newsletter sign-up

Weekly statistics, charts and insights to help you stay on top of the space industry.